Temperature
24 25 24 23 24 24 24 24 23 20 19 19 18 17 17 16 16 16 16 16 15 15 14 14 14 13 13 14 14 14 14 15 15 16 16 17 17 17 17 17 17 18 17 17
25 23 22 22 23 23 24 23 22 20 19 19 18 17 17 17 16 15 15 15 15 14 14 14 13 13 13 13 13 13 14 14 14 15 15 16 16 16 17 17 17 17 17 17
24 22 21 22 23 23 22 22 21 20 19 19 18 17 18 17 17 16 15 15 14 14 13 13 13 12 12 12 13 13 13 13 14 14 14 15 15 16 16 16 17 17 17 17
22 21 21 22 21 21 21 20 20 19 20 19 19 19 17 17 17 16 15 15 14 13 13 13 12 12 12 12 12 12 12 13 13 13 14 14 15 15 15 15 16 16 16 17
21 21 21 21 20 20 20 19 19 20 20 20 19 20 18 17 16 16 15 14 14 13 13 12 12 12 11 11 12 12 12 12 13 13 13 14 14 14 15 15 15 16 16 16
21 20 20 20 19 19 19 19 19 20 20 20 18 19 17 16 15 15 15 14 14 13 13 12 12 11 11 11 12 12 12 12 13 13 13 13 14 14 14 15 15 15 15 16
21 20 20 19 20 20 20 21 21 21 20 19 18 17 16 16 16 15 15 14 14 13 13 12 12 11 11 11 11 12 12 12 12 12 13 13 13 13 14 14 14 15 15 15
22 21 19 19 19 19 19 20 21 21 21 19 17 17 16 16 15 15 14 14 14 13 13 12 12 11 11 11 11 11 12 12 12 12 12 13 13 13 13 14 14 14 15 15
23 20 19 18 18 19 20 19 19 20 19 19 18 17 17 16 16 15 15 14 14 13 13 12 12 12 11 11 11 11 11 11 12 12 12 12 12 13 13 13 14 14 14 14
22 20 19 18 19 18 18 18 19 19 19 19 18 17 16 16 16 16 15 14 14 13 13 13 12 11 11 11 11 11 11 11 11 12 12 12 12 13 13 13 13 13 14 14
21 21 19 19 19 18 18 18 18 18 18 18 17 17 16 16 15 15 15 14 14 13 13 13 12 12 12 12 11 11 11 11 11 11 12 12 12 12 12 13 13 13 13 13
20 22 21 19 18 17 18 17 18 18 18 17 17 17 16 16 15 15 15 14 14 14 13 13 12 12 12 12 11 11 11 11 11 11 11 12 12 12 12 12 12 13 13 13
20 21 21 20 18 18 17 16 17 18 18 18 17 17 17 16 16 15 15 15 14 14 14 13 13 12 12 12 11 11 11 11 11 11 11 11 11 12 12 12 12 12 12 12
19 21 21 21 20 19 18 17 16 17 19 18 17 17 17 17 16 16 15 15 15 14 14 14 13 13 12 12 12 11 11 11 11 11 11 11 11 11 11 11 11 12 12 12
21 21 20 19 18 18 18 17 17 17 18 18 18 17 17 17 16 16 15 15 15 15 14 14 13 13 13 12 12 12 11 11 11 11 11 10 10 11 11 11 11 11 11 11
21 20 20 19 18 18 18 18 17 17 17 17 17 17 18 17 16 16 16 15 15 15 14 14 14 13 13 12 12 12 11 11 11 11 10 10 10 10 11 11 11 11 11 11
21 21 20 21 18 18 20 20 18 18 18 18 17 18 17 17 16 16 16 15 15 15 14 14 14 13 13 13 12 12 11 11 11 11 10 10 10 10 10 10 11 11 11 11
21 20 20 20 19 20 21 20 19 18 18 18 18 18 17 17 16 16 15 15 15 15 14 14 14 13 13 13 12 12 11 11 11 10 10 10 10 10 10 10 10 10 10 10
20 20 20 20 21 21 20 19 18 18 19 19 18 18 17 16 16 17 16 15 15 14 14 14 14 13 13 13 12 12 12 11 11 11 10 10 10 10 10 10 10 10 10 10
18 20 20 20 20 22 22 20 18 19 19 20 18 18 17 17 18 18 16 15 15 14 14 14 14 13 13 13 12 12 12 12 11 11 10 10 10 10 10 10 10 10 10 9
19 19 20 20 20 22 21 18 18 19 22 20 18 18 17 18 19 17 15 15 14 14 14 14 14 13 13 13 13 13 12 12 11 11 11 10 10 10 10 10 10 9 9 9
22 21 20 20 21 22 18 18 19 21 20 19 18 18 17 17 17 16 15 15 14 14 14 14 14 13 13 13 13 13 12 12 11 11 11 10 10 10 10 10 9 9 9 9
21 22 22 21 23 21 17 19 19 19 19 19 18 18 17 17 16 16 15 15 15 14 14 14 14 14 13 13 13 13 12 12 11 11 11 10 10 10 10 10 9 9 9 9
22 19 20 21 22 20 17 18 17 18 19 18 18 17 17 17 16 16 15 15 15 15 15 15 14 14 13 13 13 13 12 12 11 11 10 10 10 10 10 10 9 9 9 9
22 19 20 21 22 19 17 17 17 17 17 17 17 17 17 17 16 16 16 15 15 15 15 15 14 14 14 13 13 13 12 12 11 11 11 10 10 10 10 10 10 9 9 9
21 20 21 23 23 23 22 20 18 17 17 17 17 17 17 16 16 16 16 16 15 15 15 15 15 14 14 14 13 13 13 12 12 12 11 11 10 10 10 9 9 9 9 9
Wind_Speed
5 6 7 8 6 3 2 2 1 4 4 5 9 9 8 9 11 12 13 13 14 14 14 13 13 13 12 11 11 11 10 9 7 6 6 5 5 5 5 5 8 10 11 12
6 9 7 4 3 2 0 1 3 5 4 3 7 7 7 8 11 12 13 14 15 16 16 16 15 14 14 13 12 12 11 10 9 6 6 5 6 6 5 5 7 11 12 12
8 6 4 4 5 2 2 2 1 3 5 5 4 4 4 6 9 12 13 14 14 15 16 17 16 15 15 14 13 11 11 11 9 9 7 6 5 5 5 6 7 9 11 12
9 5 3 4 7 5 0 3 1 5 6 3 4 3 4 6 9 13 15 15 15 15 16 16 16 16 16 15 13 13 12 10 9 8 7 7 6 6 6 6 6 7 9 10
6 5 5 5 5 5 3 2 3 5 5 4 1 4 3 6 11 14 15 15 15 15 15 15 16 16 15 14 13 12 11 10 8 7 7 7 6 6 6 6 7 7 7 8
7 4 6 5 2 3 0 4 5 5 5 3 2 4 3 7 12 14 14 15 15 16 15 15 15 15 14 14 12 12 11 10 8 7 6 6 7 7 6 6 5 5 4 5
6 5 4 4 1 1 2 4 3 5 4 1 2 2 3 7 9 11 13 14 15 15 15 15 16 16 15 14 13 12 12 11 9 8 7 6 6 6 5 4 4 3 3 3
5 4 5 6 5 3 3 4 4 4 2 2 1 1 3 5 7 9 10 12 13 14 14 15 15 14 13 14 13 13 12 11 10 9 8 7 6 4 4 4 3 2 1 1
2 4 4 5 5 4 2 3 4 2 0 1 2 1 2 3 7 9 11 12 13 14 14 14 14 13 13 14 13 12 11 10 11 10 9 8 7 7 6 6 4 3 3 1
2 5 3 2 1 6 5 2 2 2 2 1 1 0 3 7 9 10 11 12 13 13 14 14 12 12 12 12 12 12 12 11 11 11 10 7 8 8 7 6 6 6 6 5
1 3 4 3 4 6 2 1 1 1 2 3 1 2 3 5 7 9 10 11 11 12 13 12 12 11 11 11 12 12 13 12 12 11 10 9 9 8 8 8 8 7 7 7
1 1 4 4 3 2 3 3 2 2 1 1 1 2 2 2 4 6 8 9 10 11 11 11 11 11 11 12 12 12 12 12 12 11 11 10 10 9 9 9 9 8 8 8
3 2 3 5 4 3 1 2 1 1 1 1 1 2 2 1 3 4 7 8 9 10 10 10 10 10 11 11 11 11 12 11 11 11 11 12 12 11 11 11 10 10 9 9
1 0 2 3 4 2 2 2 3 3 2 1 1 1 2 1 2 4 7 8 9 9 9 10 10 10 9 10 10 11 11 11 11 11 11 12 12 12 11 11 10 10 10 10
2 2 4 4 3 1 2 3 4 5 3 2 1 3 2 1 2 4 6 7 8 9 9 9 9 9 9 9 9 10 10 11 10 11 11 11 11 11 11 11 11 11 11 10
1 3 4 3 3 3 6 6 6 6 5 4 4 4 3 2 3 4 4 6 8 8 9 9 8 8 8 8 9 9 10 10 10 11 11 10 10 11 11 11 11 11 11 10
3 3 3 2 2 5 7 9 11 7 7 7 7 4 5 5 3 3 4 5 6 7 8 8 7 7 7 7 7 8 9 9 10 10 10 10 10 10 10 10 11 10 10 10
3 3 2 2 3 4 3 3 7 9 9 10 7 6 7 5 3 4 4 5 5 6 6 6 6 5 5 5 5 6 7 8 9 10 10 10 10 10 10 10 10 10 9 9
2 3 3 3 4 5 3 6 7 8 8 13 13 10 9 5 5 5 3 3 4 5 5 5 5 4 4 4 5 5 6 7 8 9 9 9 9 9 10 10 10 9 8 8
2 4 5 3 4 3 2 7 8 6 6 11 15 13 11 9 6 4 3 1 2 3 3 4 3 3 3 3 3 4 5 6 7 7 8 8 9 9 9 10 9 8 7 7
5 5 7 7 5 5 4 10 11 6 1 11 16 15 14 12 4 4 3 1 1 2 2 3 2 2 3 2 2 3 4 6 6 5 6 7 7 8 8 8 8 8 7 7
6 5 6 5 6 4 11 12 10 5 4 10 15 15 14 11 7 5 4 3 2 1 1 2 2 2 1 2 2 2 3 4 3 4 5 6 7 7 7 8 8 8 7 8
7 6 4 7 5 2 14 11 8 4 7 10 14 15 14 12 10 8 6 4 3 1 0 1 1 1 1 1 1 2 3 2 2 2 3 4 5 6 6 7 7 7 7 7
6 5 5 7 10 9 14 13 9 9 8 10 14 15 15 14 12 10 7 6 4 3 1 1 1 0 1 1 1 1 3 3 2 2 2 3 4 4 5 5 6 6 7 7
5 8 7 9 9 6 12 18 16 13 11 11 14 16 16 14 12 11 9 7 6 4 3 2 1 0 1 1 1 2 3 4 3 2 2 1 2 3 3 4 4 5 6 6
9 11 8 7 6 7 5 11 19 18 16 15 16 16 16 15 13 12 10 8 7 6 4 4 3 2 2 2 2 2 3 4 2 1 1 1 1 1 2 2 2 2 2 4
Wind_Direction
48 67 55 36 27 14 344 306 103 97 109 87 100 96 72 45 33 23 15 8 3 358 353 354 350 347 344 342 338 332 327 325 323 318 313 306 289 276 264 249 249 251 250 248
107 71 50 46 49 53 337 227 132 117 115 126 122 99 75 47 31 20 10 3 359 353 350 352 351 348 344 340 337 330 326 324 322 313 303 289 288 280 267 257 248 243 244 243
94 78 56 61 52 50 58 349 203 165 137 146 168 151 71 47 29 20 13 5 0 355 348 348 347 345 343 340 335 329 323 318 316 313 304 299 290 276 264 254 249 246 242 239
85 75 69 63 45 357 100 27 257 194 201 169 243 234 75 22 16 13 8 3 359 354 350 348 345 345 343 341 336 330 324 318 315 312 303 300 291 286 280 271 260 255 245 240
101 72 49 46 34 358 9 340 221 202 207 189 298 278 82 18 4 1 359 358 355 354 351 349 349 346 345 344 340 333 329 325 322 317 309 300 294 291 287 278 267 260 246 235
101 84 38 26 45 19 66 152 142 176 209 214 3 306 39 16 353 348 351 353 354 355 354 352 350 349 349 348 347 345 338 336 334 328 321 312 309 309 302 287 270 257 247 236
120 91 59 6 291 115 267 245 221 206 213 113 30 323 41 11 352 346 345 348 353 356 357 355 353 351 350 351 352 350 347 345 345 340 338 334 324 319 316 305 280 261 246 239
176 116 53 28 12 353 15 316 314 308 327 117 157 13 50 8 352 351 351 353 357 357 357 356 354 354 353 352 353 355 352 353 352 349 349 348 344 336 336 338 335 323 290 258
160 117 101 50 32 347 345 34 350 319 21 212 117 102 119 9 5 5 4 1 2 359 358 358 358 359 359 359 359 356 356 1 360 359 359 360 359 3 358 356 5 3 357 347
112 128 115 142 182 57 32 7 262 280 285 277 149 74 1 359 359 358 359 358 358 357 356 359 1 1 2 3 4 6 12 11 7 7 8 9 7 10 11 15 22 26 24 24
179 139 134 140 39 22 33 59 34 48 332 313 311 80 29 352 348 346 348 349 352 352 353 355 359 359 2 6 11 13 14 15 15 13 12 18 20 22 23 26 26 28 33 35
43 190 128 108 90 27 33 20 314 310 72 337 301 103 93 330 334 339 343 350 352 351 353 357 358 1 6 11 14 16 16 17 17 15 18 23 26 28 32 32 28 31 36 38
168 214 168 165 170 172 111 58 7 350 167 211 261 109 135 292 330 345 346 347 350 350 355 2 5 9 11 13 15 17 18 18 19 20 23 27 31 31 33 34 32 32 38 40
234 122 352 38 76 118 163 185 220 253 266 216 232 164 179 252 328 346 348 347 349 354 360 6 8 13 14 14 16 19 19 20 22 26 28 30 31 31 35 37 37 38 40 42
242 120 104 96 114 181 236 221 219 239 267 266 191 210 207 223 301 325 332 341 352 0 3 5 7 12 15 17 18 21 20 20 23 28 32 30 31 33 35 36 37 39 39 40
199 156 163 176 197 245 256 234 222 229 231 228 217 222 199 217 256 291 326 344 352 358 0 3 8 12 14 17 18 19 19 22 25 30 31 30 32 34 33 33 34 35 36 37
175 185 225 224 210 265 257 224 210 213 212 211 216 198 180 206 236 286 318 333 347 352 355 360 6 11 14 18 18 19 18 22 29 33 33 31 32 32 31 32 34 32 34 35
188 195 245 269 248 261 92 125 199 217 223 216 220 193 195 211 246 270 282 307 332 349 350 356 360 7 12 22 24 24 25 29 34 35 34 31 30 31 31 31 31 29 31 33
240 211 242 266 279 276 204 190 192 211 236 213 211 204 200 206 237 221 215 282 318 333 335 340 344 351 2 17 15 20 33 38 39 35 32 31 30 31 30 30 28 26 27 30
178 226 243 250 276 268 148 159 174 202 248 198 198 197 191 196 209 164 156 247 308 326 332 337 339 346 8 19 10 19 35 41 41 35 32 33 33 31 29 27 25 26 27 27
191 206 228 242 260 265 140 150 166 206 300 167 186 189 188 197 193 126 155 212 288 320 332 329 333 1 12 8 359 22 41 49 48 42 39 37 36 35 30 26 25 26 29 29
212 206 214 216 235 252 150 163 197 224 120 170 181 185 187 191 181 178 196 207 234 281 340 339 342 20 24 6 355 48 62 68 68 60 52 45 39 35 33 32 30 29 27 32
222 223 228 223 249 64 178 196 207 207 187 182 182 183 184 187 191 196 200 202 207 226 279 346 346 21 70 65 18 54 102 126 117 88 67 55 52 45 37 35 33 30 27 28
212 210 233 254 256 233 211 218 214 209 203 188 185 183 186 190 192 194 197 197 197 199 194 238 255 147 91 79 76 83 137 165 165 123 88 66 54 50 46 37 33 32 25 23
216 189 223 248 259 238 225 219 213 207 204 191 188 187 190 192 193 193 195 196 195 192 192 207 215 156 131 129 121 133 166 181 182 156 135 92 63 49 39 46 35 29 42 27
206 202 212 245 237 217 221 208 204 202 200 195 189 190 194 196 195 196 197 194 195 196 195 198 196 202 188 165 145 149 181 201 208 178 158 132 101 58 22 25 80 112 49 56
Height
1545 1546 1551 1553 1552 1550 1549 1550 1555 1563 1567 1568 1571 1575 1577 1578 1576 1574 1572 1569 1567 1565 1562 1559 1555 1551 1548 1545 1542 1539 1536 1534 1532 1530 1528 1527 1526 1526 1526 1527 1528 1530 1532 1534
1546 1555 1559 1557 1555 1552 1552 1554 1559 1566 1568 1568 1572 1575 1576 1577 1576 1575 1573 1570 1567 1564 1560 1557 1553 1550 1546 1542 1539 1536 1533 1531 1528 1526 1525 1523 1522 1521 1521 1522 1523 1524 1526 1528
1550 1561 1561 1558 1556 1555 1556 1558 1560 1565 1569 1569 1571 1575 1574 1575 1576 1575 1574 1571 1568 1564 1560 1556 1552 1548 1544 1540 1536 1533 1530 1527 1525 1523 1521 1520 1518 1517 1517 1517 1518 1519 1520 1522
1558 1563 1562 1559 1561 1559 1560 1564 1564 1564 1564 1566 1570 1567 1574 1574 1574 1574 1573 1570 1568 1564 1560 1556 1551 1546 1542 1538 1534 1530 1527 1524 1522 1520 1518 1516 1515 1514 1514 1513 1513 1514 1515 1516
1562 1564 1562 1562 1565 1564 1563 1565 1563 1562 1562 1564 1566 1564 1572 1572 1574 1574 1573 1571 1567 1564 1560 1555 1550 1545 1540 1535 1531 1527 1524 1521 1519 1517 1515 1513 1512 1511 1510 1509 1509 1509 1510 1510
1564 1567 1566 1566 1568 1568 1565 1564 1563 1561 1559 1566 1570 1568 1574 1576 1577 1575 1573 1570 1567 1563 1559 1555 1550 1545 1539 1534 1529 1525 1522 1519 1516 1514 1512 1510 1509 1507 1506 1505 1505 1505 1505 1506
1564 1566 1568 1568 1564 1564 1562 1560 1560 1560 1561 1568 1572 1572 1579 1578 1578 1577 1574 1571 1567 1563 1559 1554 1549 1544 1539 1533 1529 1524 1521 1517 1514 1512 1510 1508 1506 1505 1503 1502 1502 1502 1502 1502
1560 1566 1570 1570 1569 1566 1565 1561 1562 1561 1560 1568 1573 1574 1578 1579 1578 1577 1574 1571 1567 1563 1559 1554 1549 1544 1539 1534 1529 1524 1520 1517 1514 1511 1509 1507 1505 1503 1501 1500 1499 1499 1499 1499
1556 1568 1572 1573 1572 1567 1563 1563 1565 1562 1564 1567 1571 1574 1576 1577 1576 1575 1573 1570 1567 1564 1559 1555 1550 1545 1540 1535 1530 1525 1522 1518 1515 1512 1509 1507 1505 1502 1500 1499 1498 1498 1498 1498
1555 1566 1571 1572 1570 1572 1569 1568 1564 1563 1567 1567 1573 1575 1577 1575 1575 1574 1573 1570 1568 1564 1560 1556 1551 1546 1541 1537 1532 1528 1523 1520 1516 1513 1510 1507 1505 1503 1501 1499 1498 1498 1497 1497
1558 1560 1570 1569 1570 1571 1570 1570 1568 1567 1568 1569 1575 1579 1576 1577 1577 1575 1573 1571 1568 1565 1561 1557 1553 1548 1544 1539 1535 1530 1526 1522 1519 1515 1512 1509 1506 1504 1502 1501 1500 1499 1498 1498
1562 1557 1563 1571 1575 1575 1573 1573 1570 1568 1571 1571 1572 1579 1576 1577 1577 1575 1573 1571 1568 1565 1562 1558 1554 1550 1546 1542 1538 1534 1530 1525 1522 1518 1514 1511 1509 1507 1505 1503 1502 1501 1500 1499
1562 1560 1564 1569 1575 1575 1573 1575 1574 1571 1569 1570 1573 1578 1575 1575 1575 1574 1573 1571 1568 1565 1562 1559 1555 1551 1548 1544 1540 1537 1533 1529 1525 1521 1518 1515 1512 1509 1507 1506 1504 1503 1502 1501
1564 1560 1561 1565 1566 1569 1572 1575 1575 1572 1567 1569 1571 1572 1572 1573 1573 1573 1572 1570 1568 1565 1562 1559 1556 1553 1550 1546 1543 1540 1536 1532 1528 1525 1521 1518 1515 1513 1511 1509 1507 1506 1504 1503
1562 1561 1564 1567 1569 1570 1571 1572 1573 1571 1568 1567 1569 1571 1570 1571 1573 1573 1572 1570 1568 1565 1563 1560 1557 1554 1551 1548 1545 1542 1538 1535 1532 1528 1525 1522 1519 1517 1514 1512 1510 1508 1507 1505
1561 1562 1564 1568 1569 1569 1569 1569 1570 1571 1570 1569 1570 1570 1569 1571 1572 1572 1570 1569 1567 1565 1563 1561 1558 1555 1553 1550 1547 1544 1541 1538 1535 1531 1528 1525 1523 1520 1517 1515 1513 1511 1509 1507
1560 1561 1563 1562 1567 1568 1562 1558 1564 1564 1565 1566 1567 1566 1568 1570 1570 1570 1569 1568 1567 1565 1563 1561 1559 1556 1554 1552 1549 1546 1543 1540 1537 1534 1531 1528 1526 1523 1520 1518 1516 1513 1511 1509
1560 1560 1561 1561 1566 1564 1554 1555 1557 1560 1561 1562 1562 1564 1567 1568 1569 1569 1569 1568 1566 1565 1563 1561 1559 1557 1555 1553 1550 1548 1545 1543 1540 1537 1534 1531 1528 1526 1523 1521 1518 1516 1514 1511
1562 1562 1561 1560 1558 1554 1553 1555 1557 1558 1556 1556 1559 1562 1565 1567 1567 1566 1567 1566 1566 1564 1563 1561 1559 1557 1556 1554 1551 1550 1548 1545 1542 1539 1537 1534 1531 1529 1526 1523 1521 1518 1516 1514
1565 1562 1560 1561 1560 1553 1547 1549 1554 1557 1552 1549 1554 1558 1561 1564 1562 1563 1565 1565 1564 1563 1562 1560 1559 1557 1556 1554 1552 1551 1549 1547 1544 1541 1539 1537 1534 1531 1529 1526 1523 1521 1519 1516
1559 1560 1560 1559 1556 1544 1543 1549 1554 1556 1543 1544 1549 1554 1558 1560 1560 1563 1563 1564 1563 1562 1561 1560 1559 1557 1556 1554 1553 1552 1550 1548 1546 1543 1541 1539 1536 1534 1531 1528 1526 1523 1521 1519
1549 1552 1553 1553 1553 1546 1544 1547 1547 1541 1541 1543 1547 1551 1554 1557 1560 1561 1562 1563 1562 1562 1560 1559 1558 1557 1556 1554 1553 1553 1551 1549 1547 1545 1543 1541 1539 1536 1534 1531 1529 1526 1524 1522
1545 1543 1541 1542 1538 1535 1538 1538 1539 1539 1540 1542 1545 1548 1552 1555 1558 1559 1561 1561 1561 1561 1560 1559 1558 1557 1556 1554 1553 1553 1551 1549 1548 1547 1545 1543 1541 1539 1536 1534 1532 1529 1527 1525
1539 1543 1542 1537 1531 1533 1534 1535 1536 1537 1539 1541 1543 1546 1550 1553 1555 1557 1558 1559 1559 1559 1559 1558 1557 1557 1556 1555 1553 1552 1551 1550 1549 1548 1546 1545 1543 1541 1539 1536 1534 1532 1530 1528
1533 1538 1536 1531 1526 1528 1527 1528 1530 1534 1536 1538 1541 1544 1547 1550 1552 1554 1556 1557 1558 1558 1557 1557 1557 1556 1555 1554 1553 1552 1551 1550 1550 1549 1548 1546 1545 1543 1541 1539 1537 1534 1532 1530
1527 1528 1527 1523 1519 1521 1521 1521 1524 1528 1532 1535 1537 1541 1544 1547 1549 1551 1553 1554 1555 1556 1556 1556 1555 1555 1554 1554 1553 1552 1551 1550 1550 1550 1549 1547 1546 1544 1543 1541 1539 1537 1535 1533